Voltar ao catálogo

STARLINK-36608

AtivoComunicaçõesVLEO
NORAD 67854·PAYLOAD·🇺🇸 United States

Lançado Feb 20, 2026 de Vandenberg Space Force Base

Loading…

Próximas Passagens (próximas 24 horas)

TLE

AtualizadoSource: CelesTrak SupGP

Época: Sep 14, 2026, 21:04 UTC

1 67854C 26034E   26257.87826389  .00054864  00000+0  16213-2 0  2576
2 67854  53.1600  44.2204 0001158  80.6353 116.5304 15.34356313    18

Acompanhe STARLINK-36608 em tempo real com AllMySat

Download on the App Store